Home   Weather   Saint-Denis   Past weeks
Flag for France

Past Weather in Saint-Denis, Île-de-France, France — Yesterday and Last 2 Weeks

Now
48 °F

Light rain. Passing clouds.


Feels Like: 43 °F
Forecast: 54 / 46 °F
Wind: 12 mph from Southwest

Location: Paris Le Bourget Airport

Current Time: Feb 16, 2020 at 11:28:28 pm

Latest Report: Feb 16, 2020 at 10:30 pm


Visibility: N/A

Pressure: 29.89 "Hg

Humidity: 87%

Dew Point: 45 °F

Location of Saint-DenisLocation

Past Weather in Saint-Denis — Graph

°F

Saint-Denis Temperature Yesterday

Maximum temperature yesterday: 57 °F (at 1:30 pm)
Minimum temperature yesterday: 43 °F (at 2:30 am)
Average temperature yesterday: 51 °F

High & Low Weather Summary for the Past Weeks

 TemperatureHumidityPressure
High64 °F (Feb 16, 2:30 pm)100% (Feb 2, 8:30 pm)30.66 "Hg (Feb 2, 8:30 pm)
Low32 °F (Feb 6, 8:30 am)50% (Feb 7, 2:00 pm)29.50 "Hg (Feb 13, 3:30 pm)
Average49 °F76%30.04 "Hg
* Reported Feb 1 10:00 pm — Feb 16 10:30 pm, Saint-Denis. Weather by CustomWeather, © 2020

Note: Actual official high and low records may vary slightly from our data, if they occured in-between our weather recording intervals... More about our weather records

Saint-Denis Weather History for the Previous 24 Hours

Scroll right to see more
 ConditionsComfort  
Time TempWeatherWind HumidityBarometerVisibility
10:30 pm
Sun, Feb 16
48 °FLight rain. Passing clouds.12 mph87%29.89 "HgN/A
10:00 pm48 °FLight rain. Passing clouds.9 mph94%29.89 "Hg4 mi
9:30 pm48 °FPassing clouds.14 mph87%29.86 "HgN/A
9:00 pm48 °FDrizzle. Mostly cloudy.13 mph94%29.86 "Hg4 mi
8:30 pm48 °FLight rain. Passing clouds.12 mph94%29.83 "Hg4 mi
8:00 pm50 °FLight rain. Fog.14 mph88%29.80 "Hg2 mi
7:30 pm59 °FDrizzle. Overcast.23 mph82%29.74 "HgN/A
7:00 pm61 °FDrizzle. Mostly cloudy.30 mph72%29.74 "HgN/A
6:30 pm63 °FMostly cloudy.28 mph68%29.71 "HgN/A
6:00 pm63 °FOvercast.30 mph68%29.71 "HgN/A
5:30 pm64 °FOvercast.29 mph60%29.71 "HgN/A
5:00 pm64 °FOvercast.26 mph60%29.71 "HgN/A
4:30 pm64 °FMostly cloudy.28 mph60%29.71 "HgN/A
4:00 pm64 °FOvercast.28 mph60%29.71 "HgN/A
3:30 pm64 °FMostly cloudy.28 mph60%29.71 "HgN/A
3:00 pm64 °FOvercast.32 mph60%29.71 "HgN/A
2:30 pm64 °FOvercast.25 mph60%29.71 "HgN/A
2:00 pm63 °FMostly cloudy.28 mph64%29.74 "HgN/A
1:30 pm63 °FOvercast.25 mph64%29.74 "HgN/A
1:00 pm61 °FOvercast.25 mph63%29.77 "HgN/A
12:30 pm61 °FOvercast.24 mph63%29.77 "HgN/A
12:00 pm59 °FOvercast.24 mph68%29.77 "HgN/A
11:30 am59 °FMostly cloudy.28 mph63%29.77 "HgN/A
11:00 am59 °FMostly cloudy.25 mph63%29.77 "HgN/A
10:30 am59 °FMostly cloudy.28 mph63%29.77 "HgN/A
10:00 am59 °FPartly sunny.25 mph63%29.77 "HgN/A
9:30 am57 °FCool.24 mph63%29.77 "HgN/A
9:00 am57 °FSunny.23 mph63%29.80 "Hg10 mi
8:30 am57 °FSunny.24 mph63%29.80 "Hg10 mi
8:00 am57 °FSunny.23 mph63%29.80 "Hg10 mi
7:30 am57 °FClear.24 mph63%29.80 "Hg10 mi
7:00 am57 °FOvercast.24 mph63%29.83 "HgN/A
6:30 am57 °FClear.25 mph63%29.83 "Hg10 mi
6:00 am57 °FOvercast.22 mph67%29.83 "HgN/A
5:30 am57 °FMostly cloudy.21 mph67%29.83 "HgN/A
5:00 am57 °FOvercast.22 mph67%29.83 "HgN/A
4:30 am57 °FMostly cloudy.22 mph67%29.86 "HgN/A
4:00 am57 °FMostly cloudy.22 mph67%29.86 "HgN/A
3:30 am57 °FMostly cloudy.23 mph67%29.89 "HgN/A
3:00 am55 °FPassing clouds.24 mph72%29.89 "HgN/A
2:30 am55 °FLight rain. Mostly cloudy.21 mph72%29.89 "HgN/A
2:00 am55 °FLight rain. Overcast.21 mph72%29.89 "HgN/A
1:30 am57 °FPassing clouds.22 mph67%29.89 "HgN/A
1:00 am55 °FPassing clouds.21 mph67%29.92 "HgN/A
12:30 am57 °FPartly cloudy.24 mph63%29.92 "HgN/A
12:00 am57 °FPassing clouds.20 mph63%29.92 "HgN/A
11:30 pm
Sat, Feb 15
55 °FOvercast.21 mph67%29.92 "HgN/A
11:00 pm55 °FClear.20 mph67%29.92 "Hg10 mi
Weather by CustomWeather, © 2020

See weather overview

Advertising